Observer details:
113 Volkssternwarte Drebach, Schoenbrunn.  Observers A. Knoefel, G. Lehmann.
    0.50-m f/4.0 reflector + CCD.
118 Modra.  Observers S. Gajdos, J. Toth.  0.6-m f/5.5 reflector + CCD.
151 Eschenberg Observatory, Winterthur.  Observer M. Griesser.  0.40-m f/5.8
    Hypergraph + CCD.
157 Frasso Sabino.  Observers R. Haver, F. Anzellini, A. Pelloni.  0.20-m f/6.3
    Schmidt-Cassegrain + CCD.
198 Wildberg.  Observer R. Apitzsch.  0.235-m Schmidt-Cassegrain + CCD.
246 Klet Observatory-KLENOT.  Observers J. Ticha, M. Tichy.  1.06-m KLENOT
    telescope + CCD.
291 LPL/Spacewatch II.  Observer T. H. Bressi.  1.8-m Spacewatch telescope.
345 Sobaeksan Optical Astronomy Observatory.  Observers S.-G. Kwon, S.-L. Kim.
    0.61-m reflector + CCD.
422 Loomberah.  Observer G. J. Garradd.  0.45-m f/5.4 reflector + CCD.
428 Reedy Creek.  Observer J. Broughton.  0.25-m f/6.3 Schmidt-Cassegrain
    + CCD.
557 Ondrejov.  Observers P. Pravec, P. Kusnirak.  0.65-m f/3.6 reflector + CCD.
587 Sormano.  Observers A. Testa, G. Ventre, M. Cavagna.  0.5-m reflector
    + CCD.
620 Observatorio Astronomico de Mallorca.  Observers S. Sanchez, A. Garcia.
    0.40-m f/2.0 Schmidt + CCD.
704 Lincoln Laboratory ETS, New Mexico.  Observers M. Blythe, F. Shelly,
    M. Bezpalko, R. Huber, L. Manguso, S. Adams, J. Piscitelli.  Measurers
    J. Stuart, R. Sayer, J. B. Evans, H. Viggh.  1.0-m f/2.15 reflector + CCD.
761 Zephyrhills.  Observer R. A. Kowalski.  0.18-m Maksutov + CCD.
854 Sabino Canyon Observatory, Tucson.  Observer J. E. McGaha.  0.30-m f/10.0
    Schmidt-Cassegrain + CCD.
946 Ametlla de Mar.  Observer J. Nomen.  0.40-m f/2.0 Schmidt + CCD.
966 Church Stretton.  Observer S. P. Laurie.  0.35-m f/11 Schmidt-Cassegrain
    + CCD.

Orbital elements:
2002 EA3
Epoch 2002 Mar. 7.0 TT = JDT 2452340.5                  MPC
M 341.91284              (2000.0)            P               Q
n   0.31601788     Peri.  258.95948     -0.33535444     +0.93732090
a   2.1346579      Node   349.79960     -0.50904730     -0.26486456
e   0.6450262      Incl.   32.32475     -0.79272205     -0.22644271
P   3.12           H   20.1           G   0.15
From 99 observations 2002 Mar. 9-11.

Ephemeris:
2002 EA3                 a,e,i = 2.13, 0.65, 32                  q = 0.7577
Date    TT    R. A. (2000) Decl.     Delta      r     Elong.  Phase     V
2002 03 07    12 09.27   +09 50.6    0.149    1.137   164.5    13.5    17.0
2002 03 09    11 54.74   +04 10.3    0.126    1.117   170.5     8.4    16.4
2002 03 11    11 34.25   -03 54.4    0.105    1.098   171.8     7.4    16.0
2002 03 13    11 04.24   -15 16.2    0.089    1.078   160.4    18.0    15.9
2002 03 15    10 18.72   -29 48.2    0.080    1.059   142.6    34.7    16.2
2002 03 17    09 09.94   -44 23.8    0.080    1.040   122.4    53.8    16.7
2002 03 19    07 37.90   -54 05.2    0.089    1.021   104.4    70.8    17.4
2002 03 21    06 04.94   -57 23.8    0.105    1.003    90.6    83.4    18.1
2002 03 23    04 54.41   -56 53.0    0.124    0.984    80.8    92.0    18.8
2002 03 25    04 07.23   -55 03.9    0.146    0.967    73.8    97.9    19.4
2002 03 27    03 35.72   -53 03.1    0.170    0.949    68.6   101.9    19.9
2002 03 29    03 13.74   -51 10.9    0.194    0.932    64.6   104.5    20.2
2002 03 31    02 57.67   -49 31.2    0.219    0.915    61.5   106.3    20.6
2002 04 02    02 45.40   -48 02.6    0.244    0.899    59.1   107.5    20.8
2002 04 04    02 35.69   -46 43.2    0.269    0.883    57.1   108.1    21.0
2002 04 06    02 27.77   -45 30.6    0.295    0.868    55.5   108.3    21.2

Gareth V. Williams           (C) Copyright 2002 MPC           M.P.E.C. 2002-E38

Read MPEC 2002-E37 Read MPEC 2002-E39


Our Web policy. Index to the CBAT/MPC/ICQ pages.

